owner,sensor,date,latitude,longitude,vertical_datum,wind_speed,wind_to_direction,wind_speed_of_gust,qcFlag 
TCOON,ioos:station:TCOON:006:1,2010-09-01T00:00:00Z,27.8217,-97.2040,0.0,99.0,-9999.0,99.0,'11144222,99999999,11144222' 
TCOON,ioos:station:TCOON:006:1,2010-09-01T01:00:00Z,27.8217,-97.2040,0.0,99.0,-9999.0,99.0,'11144222,99999999,11144222' 
TCOON,ioos:station:TCOON:006:1,2010-09-01T02:00:00Z,27.8217,-97.2040,0.0,99.0,-9999.0,99.0,'11144222,99999999,11144222' 
TCOON,ioos:station:TCOON:006:1,2010-09-01T03:00:00Z,27.8217,-97.2040,0.0,99.0,-9999.0,99.0,'11144222,99999999,11144222' 
TCOON,ioos:station:TCOON:006:1,2010-09-01T04:00:00Z,27.8217,-97.2040,0.0,99.0,-9999.0,99.0,'11144222,99999999,11144222' 
TCOON,ioos:station:TCOON:006:1,2010-09-01T05:00:00Z,27.8217,-97.2040,0.0,99.0,-9999.0,99.0,'11144222,99999999,11144222' 
TCOON,ioos:station:TCOON:006:1,2010-09-01T06:00:00Z,27.8217,-97.2040,0.0,99.0,-9999.0,99.0,'11144222,99999999,11144222' 
TCOON,ioos:station:TCOON:006:1,2010-09-01T07:00:00Z,27.8217,-97.2040,0.0,99.0,-9999.0,99.0,'11144222,99999999,11144222' 
TCOON,ioos:station:TCOON:006:1,2010-09-01T08:00:00Z,27.8217,-97.2040,0.0,99.0,-9999.0,99.0,'11144222,99999999,11144222' 
TCOON,ioos:station:TCOON:006:1,2010-09-01T09:00:00Z,27.8217,-97.2040,0.0,99.0,-9999.0,99.0,'11144222,99999999,11144222' 
TCOON,ioos:station:TCOON:006:1,2010-09-01T10:00:00Z,27.8217,-97.2040,0.0,99.0,-9999.0,99.0,'11144222,99999999,11144222' 
TCOON,ioos:station:TCOON:006:1,2010-09-01T11:00:00Z,27.8217,-97.2040,0.0,99.0,-9999.0,99.0,'11144222,99999999,11144222' 
TCOON,ioos:station:TCOON:006:1,2010-09-01T12:00:00Z,27.8217,-97.2040,0.0,99.0,-9999.0,99.0,'11144222,99999999,11144222' 
TCOON,ioos:station:TCOON:006:1,2010-09-01T13:00:00Z,27.8217,-97.2040,0.0,99.0,-9999.0,99.0,'11144222,99999999,11144222' 
TCOON,ioos:station:TCOON:006:1,2010-09-01T14:00:00Z,27.8217,-97.2040,0.0,99.0,-9999.0,99.0,'11144222,99999999,11144222' 
TCOON,ioos:station:TCOON:006:1,2010-09-01T15:00:00Z,27.8217,-97.2040,0.0,99.0,-9999.0,99.0,'11144222,99999999,11144222' 
TCOON,ioos:station:TCOON:006:1,2010-09-01T16:00:00Z,27.8217,-97.2040,0.0,99.0,-9999.0,99.0,'11144222,99999999,11144222' 
TCOON,ioos:station:TCOON:006:1,2010-09-01T17:00:00Z,27.8217,-97.2040,0.0,99.0,-9999.0,99.0,'11144222,99999999,11144222' 
TCOON,ioos:station:TCOON:006:1,2010-09-01T18:00:00Z,27.8217,-97.2040,0.0,99.0,-9999.0,99.0,'11144222,99999999,11144222' 
TCOON,ioos:station:TCOON:006:1,2010-09-01T19:00:00Z,27.8217,-97.2040,0.0,99.0,-9999.0,99.0,'11144222,99999999,11144222' 
TCOON,ioos:station:TCOON:006:1,2010-09-01T20:00:00Z,27.8217,-97.2040,0.0,99.0,-9999.0,99.0,'11144222,99999999,11144222' 
TCOON,ioos:station:TCOON:006:1,2010-09-01T21:00:00Z,27.8217,-97.2040,0.0,99.0,-9999.0,99.0,'11144222,99999999,11144222' 
TCOON,ioos:station:TCOON:006:1,2010-09-01T22:00:00Z,27.8217,-97.2040,0.0,99.0,-9999.0,99.0,'11144222,99999999,11144222' 
TCOON,ioos:station:TCOON:006:1,2010-09-01T23:00:00Z,27.8217,-97.2040,0.0,99.0,-9999.0,99.0,'11144222,99999999,11144222' 
TCOON,ioos:station:TCOON:006:1,2010-09-02T00:00:00Z,27.8217,-97.2040,0.0,99.0,-9999.0,99.0,'11144222,99999999,11144222' 
TCOON,ioos:station:TCOON:006:1,2010-09-02T01:00:00Z,27.8217,-97.2040,0.0,99.0,-9999.0,99.0,'11144222,99999999,11144222' 
TCOON,ioos:station:TCOON:006:1,2010-09-02T02:00:00Z,27.8217,-97.2040,0.0,99.0,-9999.0,99.0,'11144222,99999999,11144222' 
TCOON,ioos:station:TCOON:006:1,2010-09-02T03:00:00Z,27.8217,-97.2040,0.0,99.0,-9999.0,99.0,'11144222,99999999,11144222' 
TCOON,ioos:station:TCOON:006:1,2010-09-02T04:00:00Z,27.8217,-97.2040,0.0,99.0,-9999.0,99.0,'11144222,99999999,11144222' 
TCOON,ioos:station:TCOON:006:1,2010-09-02T05:00:00Z,27.8217,-97.2040,0.0,99.0,-9999.0,99.0,'11144222,99999999,11144222' 
TCOON,ioos:station:TCOON:006:1,2010-09-02T06:00:00Z,27.8217,-97.2040,0.0,99.0,-9999.0,99.0,'11144222,99999999,11144222' 
TCOON,ioos:station:TCOON:006:1,2010-09-02T07:00:00Z,27.8217,-97.2040,0.0,99.0,-9999.0,99.0,'11144222,99999999,11144222' 
TCOON,ioos:station:TCOON:006:1,2010-09-02T08:00:00Z,27.8217,-97.2040,0.0,99.0,-9999.0,99.0,'11144222,99999999,11144222' 
TCOON,ioos:station:TCOON:006:1,2010-09-02T09:00:00Z,27.8217,-97.2040,0.0,99.0,-9999.0,99.0,'11144222,99999999,11144222' 
TCOON,ioos:station:TCOON:006:1,2010-09-02T10:00:00Z,27.8217,-97.2040,0.0,99.0,-9999.0,99.0,'11144222,99999999,11144222' 
TCOON,ioos:station:TCOON:006:1,2010-09-02T11:00:00Z,27.8217,-97.2040,0.0,99.0,-9999.0,99.0,'11144222,99999999,11144222' 
TCOON,ioos:station:TCOON:006:1,2010-09-02T12:00:00Z,27.8217,-97.2040,0.0,99.0,-9999.0,99.0,'11144222,99999999,11144222' 
TCOON,ioos:station:TCOON:006:1,2010-09-02T13:00:00Z,27.8217,-97.2040,0.0,99.0,-9999.0,99.0,'11144222,99999999,11144222' 
TCOON,ioos:station:TCOON:006:1,2010-09-02T14:00:00Z,27.8217,-97.2040,0.0,99.0,-9999.0,99.0,'11144222,99999999,11144222' 
TCOON,ioos:station:TCOON:006:1,2010-09-02T15:00:00Z,27.8217,-97.2040,0.0,99.0,-9999.0,99.0,'11144222,99999999,11144222' 
TCOON,ioos:station:TCOON:006:1,2010-09-02T16:00:00Z,27.8217,-97.2040,0.0,99.0,-9999.0,99.0,'11144222,99999999,11144222' 
TCOON,ioos:station:TCOON:006:1,2010-09-02T17:00:00Z,27.8217,-97.2040,0.0,99.0,-9999.0,99.0,'11144222,99999999,11144222' 
TCOON,ioos:station:TCOON:006:1,2010-09-02T18:00:00Z,27.8217,-97.2040,0.0,99.0,-9999.0,99.0,'11144222,99999999,11144222' 
TCOON,ioos:station:TCOON:006:1,2010-09-02T19:00:00Z,27.8217,-97.2040,0.0,99.0,-9999.0,99.0,'11144222,99999999,11144222' 
TCOON,ioos:station:TCOON:006:1,2010-09-02T20:00:00Z,27.8217,-97.2040,0.0,99.0,-9999.0,99.0,'11144222,99999999,11144222' 
TCOON,ioos:station:TCOON:006:1,2010-09-02T21:00:00Z,27.8217,-97.2040,0.0,99.0,-9999.0,99.0,'11144222,99999999,11144222' 
TCOON,ioos:station:TCOON:006:1,2010-09-02T22:00:00Z,27.8217,-97.2040,0.0,99.0,-9999.0,99.0,'11144222,99999999,11144222' 
TCOON,ioos:station:TCOON:006:1,2010-09-02T23:00:00Z,27.8217,-97.2040,0.0,4.2,101.0,6.0,'11111222,11111222,11111222' 
TCOON,ioos:station:TCOON:006:1,2010-09-03T00:00:00Z,27.8217,-97.2040,0.0,4.0,105.0,6.1,'11111222,11111222,11111222' 
TCOON,ioos:station:TCOON:006:1,2010-09-03T01:00:00Z,27.8217,-97.2040,0.0,4.0,103.0,5.8,'11111222,11111222,11111222' 
TCOON,ioos:station:TCOON:006:1,2010-09-03T02:00:00Z,27.8217,-97.2040,0.0,3.4,99.0,6.0,'11111222,11111222,11111222' 
TCOON,ioos:station:TCOON:006:1,2010-09-03T03:00:00Z,27.8217,-97.2040,0.0,3.0,101.0,5.0,'11111222,11111222,11111222' 
TCOON,ioos:station:TCOON:006:1,2010-09-03T04:00:00Z,27.8217,-97.2040,0.0,4.6,125.0,5.9,'11111222,11111222,11111222' 
TCOON,ioos:station:TCOON:006:1,2010-09-03T05:00:00Z,27.8217,-97.2040,0.0,4.1,114.0,5.1,'11111222,11111222,11111222' 
TCOON,ioos:station:TCOON:006:1,2010-09-03T06:00:00Z,27.8217,-97.2040,0.0,3.4,121.0,5.0,'11111222,11111222,11111222' 
TCOON,ioos:station:TCOON:006:1,2010-09-03T07:00:00Z,27.8217,-97.2040,0.0,3.2,113.0,4.6,'11111222,11111222,11111222' 
TCOON,ioos:station:TCOON:006:1,2010-09-03T08:00:00Z,27.8217,-97.2040,0.0,1.3,114.0,3.7,'11111222,11111222,11111222' 
TCOON,ioos:station:TCOON:006:1,2010-09-03T09:00:00Z,27.8217,-97.2040,0.0,1.7,125.0,2.7,'11111222,11111222,11111222' 
TCOON,ioos:station:TCOON:006:1,2010-09-03T10:00:00Z,27.8217,-97.2040,0.0,2.2,150.0,3.9,'11111222,11111222,11111222' 
TCOON,ioos:station:TCOON:006:1,2010-09-03T11:00:00Z,27.8217,-97.2040,0.0,0.0,175.0,1.3,'11111222,11111222,11111222' 
TCOON,ioos:station:TCOON:006:1,2010-09-03T12:00:00Z,27.8217,-97.2040,0.0,0.9,120.0,1.8,'11111222,11111222,11111222' 
TCOON,ioos:station:TCOON:006:1,2010-09-03T13:00:00Z,27.8217,-97.2040,0.0,0.0,117.0,99.0,'11111222,11111222,11144222' 
TCOON,ioos:station:TCOON:006:1,2010-09-03T14:00:00Z,27.8217,-97.2040,0.0,0.0,7.0,2.0,'11111222,11111222,11111222' 
TCOON,ioos:station:TCOON:006:1,2010-09-03T15:00:00Z,27.8217,-97.2040,0.0,0.8,353.0,3.0,'11111222,11111222,11111222' 
TCOON,ioos:station:TCOON:006:1,2010-09-03T16:00:00Z,27.8217,-97.2040,0.0,0.0,10.0,0.1,'11111222,11111222,11111222' 
TCOON,ioos:station:TCOON:006:1,2010-09-03T17:00:00Z,27.8217,-97.2040,0.0,2.0,313.0,3.1,'11111222,11111222,11111222' 
TCOON,ioos:station:TCOON:006:1,2010-09-03T18:00:00Z,27.8217,-97.2040,0.0,0.9,350.0,2.6,'11111222,11111222,11111222' 
TCOON,ioos:station:TCOON:006:1,2010-09-03T19:00:00Z,27.8217,-97.2040,0.0,1.4,358.0,5.3,'11111222,11111222,11111222' 
TCOON,ioos:station:TCOON:006:1,2010-09-03T20:00:00Z,27.8217,-97.2040,0.0,1.2,350.0,4.4,'11111222,11111222,11111222' 
TCOON,ioos:station:TCOON:006:1,2010-09-03T21:00:00Z,27.8217,-97.2040,0.0,1.5,36.0,3.9,'11111222,11111222,11111222' 
TCOON,ioos:station:TCOON:006:1,2010-09-03T22:00:00Z,27.8217,-97.2040,0.0,0.9,12.0,2.7,'11111222,11111222,11111222' 
TCOON,ioos:station:TCOON:006:1,2010-09-03T23:00:00Z,27.8217,-97.2040,0.0,0.1,35.0,2.1,'11111222,11111222,11111222' 
TCOON,ioos:station:TCOON:006:1,2010-09-04T00:00:00Z,27.8217,-97.2040,0.0,0.6,356.0,3.1,'11111222,11111222,11111222' 
TCOON,ioos:station:TCOON:006:1,2010-09-04T01:00:00Z,27.8217,-97.2040,0.0,0.3,28.0,3.5,'11111222,11111222,11111222' 
TCOON,ioos:station:TCOON:006:1,2010-09-04T02:00:00Z,27.8217,-97.2040,0.0,0.2,19.0,2.9,'11111222,11111222,11111222' 
TCOON,ioos:station:TCOON:006:1,2010-09-04T03:00:00Z,27.8217,-97.2040,0.0,1.7,28.0,3.3,'11111222,11111222,11111222' 
TCOON,ioos:station:TCOON:006:1,2010-09-04T04:00:00Z,27.8217,-97.2040,0.0,1.1,343.0,1.9,'11111222,11111222,11111222' 
TCOON,ioos:station:TCOON:006:1,2010-09-04T05:00:00Z,27.8217,-97.2040,0.0,0.8,345.0,2.6,'11111222,11111222,11111222' 
TCOON,ioos:station:TCOON:006:1,2010-09-04T06:00:00Z,27.8217,-97.2040,0.0,0.0,5.0,1.0,'11111222,11111222,11111222' 
TCOON,ioos:station:TCOON:006:1,2010-09-04T07:00:00Z,27.8217,-97.2040,0.0,0.0,6.0,0.5,'11111222,11111222,11111222' 
TCOON,ioos:station:TCOON:006:1,2010-09-04T08:00:00Z,27.8217,-97.2040,0.0,0.1,10.0,1.6,'11111222,11111222,11111222' 
TCOON,ioos:station:TCOON:006:1,2010-09-04T09:00:00Z,27.8217,-97.2040,0.0,0.0,355.0,1.4,'11111222,11111222,11111222' 
TCOON,ioos:station:TCOON:006:1,2010-09-04T10:00:00Z,27.8217,-97.2040,0.0,0.4,4.0,1.5,'11111222,11111222,11111222' 
TCOON,ioos:station:TCOON:006:1,2010-09-04T11:00:00Z,27.8217,-97.2040,0.0,0.1,15.0,3.1,'11111222,11111222,11111222' 
TCOON,ioos:station:TCOON:006:1,2010-09-04T12:00:00Z,27.8217,-97.2040,0.0,0.1,357.0,1.6,'11111222,11111222,11111222' 
TCOON,ioos:station:TCOON:006:1,2010-09-04T13:00:00Z,27.8217,-97.2040,0.0,0.1,7.0,1.4,'11111222,11111222,11111222' 
TCOON,ioos:station:TCOON:006:1,2010-09-04T14:00:00Z,27.8217,-97.2040,0.0,0.6,35.0,2.9,'11111222,11111222,11111222' 
TCOON,ioos:station:TCOON:006:1,2010-09-04T15:00:00Z,27.8217,-97.2040,0.0,3.1,39.0,5.4,'11111222,11111222,11111222' 
TCOON,ioos:station:TCOON:006:1,2010-09-04T16:00:00Z,27.8217,-97.2040,0.0,3.4,32.0,5.2,'11111222,11111222,11111222' 
TCOON,ioos:station:TCOON:006:1,2010-09-04T17:00:00Z,27.8217,-97.2040,0.0,3.2,36.0,4.9,'11111222,11111222,11111222' 
TCOON,ioos:station:TCOON:006:1,2010-09-04T18:00:00Z,27.8217,-97.2040,0.0,3.2,34.0,4.7,'11111222,11111222,11111222' 
TCOON,ioos:station:TCOON:006:1,2010-09-04T19:00:00Z,27.8217,-97.2040,0.0,3.9,70.0,5.4,'11111222,11111222,11111222' 
TCOON,ioos:station:TCOON:006:1,2010-09-04T20:00:00Z,27.8217,-97.2040,0.0,4.6,69.0,5.7,'11111222,11111222,11111222' 
TCOON,ioos:station:TCOON:006:1,2010-09-04T21:00:00Z,27.8217,-97.2040,0.0,3.7,80.0,5.2,'11111222,11111222,11111222' 
TCOON,ioos:station:TCOON:006:1,2010-09-04T22:00:00Z,27.8217,-97.2040,0.0,3.9,86.0,5.3,'11111222,11111222,11111222' 
TCOON,ioos:station:TCOON:006:1,2010-09-04T23:00:00Z,27.8217,-97.2040,0.0,5.0,83.0,6.2,'11111222,11111222,11111222' 
TCOON,ioos:station:TCOON:006:1,2010-09-05T00:00:00Z,27.8217,-97.2040,0.0,4.2,80.0,5.7,'11111222,11111222,11111222' 
TCOON,ioos:station:TCOON:006:1,2010-09-05T01:00:00Z,27.8217,-97.2040,0.0,4.5,73.0,5.6,'11111222,11111222,11111222' 
TCOON,ioos:station:TCOON:006:1,2010-09-05T02:00:00Z,27.8217,-97.2040,0.0,3.1,56.0,5.1,'11111222,11111222,11111222' 
TCOON,ioos:station:TCOON:006:1,2010-09-05T03:00:00Z,27.8217,-97.2040,0.0,3.2,52.0,4.5,'11111222,11111222,11111222' 
TCOON,ioos:station:TCOON:006:1,2010-09-05T04:00:00Z,27.8217,-97.2040,0.0,1.4,54.0,3.3,'11111222,11111222,11111222' 
TCOON,ioos:station:TCOON:006:1,2010-09-05T05:00:00Z,27.8217,-97.2040,0.0,1.9,74.0,3.8,'11111222,11111222,11111222' 
TCOON,ioos:station:TCOON:006:1,2010-09-05T06:00:00Z,27.8217,-97.2040,0.0,1.4,58.0,3.5,'11111222,11111222,11111222' 
TCOON,ioos:station:TCOON:006:1,2010-09-05T07:00:00Z,27.8217,-97.2040,0.0,1.6,337.0,2.3,'11111222,11111222,11111222' 
TCOON,ioos:station:TCOON:006:1,2010-09-05T08:00:00Z,27.8217,-97.2040,0.0,0.1,9.0,0.3,'11111222,11111222,11111222' 
TCOON,ioos:station:TCOON:006:1,2010-09-05T09:00:00Z,27.8217,-97.2040,0.0,0.3,24.0,1.1,'11111222,11111222,11111222' 
TCOON,ioos:station:TCOON:006:1,2010-09-05T10:00:00Z,27.8217,-97.2040,0.0,0.1,18.0,1.3,'11111222,11111222,11111222' 
TCOON,ioos:station:TCOON:006:1,2010-09-05T11:00:00Z,27.8217,-97.2040,0.0,0.2,13.0,2.6,'11111222,11111222,11111222' 
TCOON,ioos:station:TCOON:006:1,2010-09-05T12:00:00Z,27.8217,-97.2040,0.0,0.0,2.0,0.6,'11111222,11111222,11111222' 
TCOON,ioos:station:TCOON:006:1,2010-09-05T13:00:00Z,27.8217,-97.2040,0.0,0.2,16.0,2.7,'11111222,11111222,11111222' 
TCOON,ioos:station:TCOON:006:1,2010-09-05T14:00:00Z,27.8217,-97.2040,0.0,3.7,29.0,5.9,'11111222,11111222,11111222' 
TCOON,ioos:station:TCOON:006:1,2010-09-05T15:00:00Z,27.8217,-97.2040,0.0,4.1,30.0,5.7,'11111222,11111222,11111222' 
TCOON,ioos:station:TCOON:006:1,2010-09-05T16:00:00Z,27.8217,-97.2040,0.0,3.0,37.0,5.0,'11111222,11111222,11111222' 
TCOON,ioos:station:TCOON:006:1,2010-09-05T17:00:00Z,27.8217,-97.2040,0.0,2.7,40.0,5.7,'11111222,11111222,11111222' 
TCOON,ioos:station:TCOON:006:1,2010-09-05T18:00:00Z,27.8217,-97.2040,0.0,2.8,46.0,5.4,'11111222,11111222,11111222' 
TCOON,ioos:station:TCOON:006:1,2010-09-05T19:00:00Z,27.8217,-97.2040,0.0,4.5,67.0,5.6,'11111222,11111222,11111222' 
TCOON,ioos:station:TCOON:006:1,2010-09-05T20:00:00Z,27.8217,-97.2040,0.0,3.8,48.0,6.1,'11111222,11111222,11111222' 
TCOON,ioos:station:TCOON:006:1,2010-09-05T21:00:00Z,27.8217,-97.2040,0.0,4.1,55.0,5.9,'11111222,11111222,11111222' 
TCOON,ioos:station:TCOON:006:1,2010-09-05T22:00:00Z,27.8217,-97.2040,0.0,4.2,62.0,6.5,'11111222,11111222,11111222' 
TCOON,ioos:station:TCOON:006:1,2010-09-05T23:00:00Z,27.8217,-97.2040,0.0,5.0,62.0,6.1,'11111222,11111222,11111222' 
TCOON,ioos:station:TCOON:006:1,2010-09-06T00:00:00Z,27.8217,-97.2040,0.0,5.2,60.0,6.3,'11111222,11111222,11111222' 
TCOON,ioos:station:TCOON:006:1,2010-09-06T01:00:00Z,27.8217,-97.2040,0.0,4.2,63.0,6.7,'11111222,11111222,11111222' 
TCOON,ioos:station:TCOON:006:1,2010-09-06T02:00:00Z,27.8217,-97.2040,0.0,5.0,85.0,6.2,'11111222,11111222,11111222' 
TCOON,ioos:station:TCOON:006:1,2010-09-06T03:00:00Z,27.8217,-97.2040,0.0,4.6,96.0,6.5,'11111222,11111222,11111222' 
TCOON,ioos:station:TCOON:006:1,2010-09-06T04:00:00Z,27.8217,-97.2040,0.0,4.8,94.0,5.9,'11111222,11111222,11111222' 
TCOON,ioos:station:TCOON:006:1,2010-09-06T05:00:00Z,27.8217,-97.2040,0.0,2.8,94.0,3.8,'11111222,11111222,11111222' 
TCOON,ioos:station:TCOON:006:1,2010-09-06T06:00:00Z,27.8217,-97.2040,0.0,3.2,68.0,4.1,'11111222,11111222,11111222' 
TCOON,ioos:station:TCOON:006:1,2010-09-06T07:00:00Z,27.8217,-97.2040,0.0,3.8,98.0,6.4,'11111222,11111222,11111222' 
TCOON,ioos:station:TCOON:006:1,2010-09-06T08:00:00Z,27.8217,-97.2040,0.0,2.7,96.0,5.4,'11111222,11111222,11111222' 
TCOON,ioos:station:TCOON:006:1,2010-09-06T09:00:00Z,27.8217,-97.2040,0.0,2.7,110.0,4.1,'11111222,11111222,11111222' 
TCOON,ioos:station:TCOON:006:1,2010-09-06T10:00:00Z,27.8217,-97.2040,0.0,3.0,97.0,5.1,'11111222,11111222,11111222' 
TCOON,ioos:station:TCOON:006:1,2010-09-06T11:00:00Z,27.8217,-97.2040,0.0,2.5,121.0,4.8,'11111222,11111222,11111222' 
TCOON,ioos:station:TCOON:006:1,2010-09-06T12:00:00Z,27.8217,-97.2040,0.0,5.3,123.0,6.7,'11111222,11111222,11111222' 
TCOON,ioos:station:TCOON:006:1,2010-09-06T13:00:00Z,27.8217,-97.2040,0.0,2.6,202.0,4.5,'11111222,11111222,11111222' 
TCOON,ioos:station:TCOON:006:1,2010-09-06T14:00:00Z,27.8217,-97.2040,0.0,3.0,156.0,4.1,'11111222,11111222,11111222' 
TCOON,ioos:station:TCOON:006:1,2010-09-06T15:00:00Z,27.8217,-97.2040,0.0,1.6,100.0,3.9,'11111222,11111222,11111222' 
TCOON,ioos:station:TCOON:006:1,2010-09-06T16:00:00Z,27.8217,-97.2040,0.0,4.0,146.0,5.0,'11111222,11111222,11111222' 
TCOON,ioos:station:TCOON:006:1,2010-09-06T17:00:00Z,27.8217,-97.2040,0.0,2.1,142.0,3.3,'11111222,11111222,11111222' 
TCOON,ioos:station:TCOON:006:1,2010-09-06T18:00:00Z,27.8217,-97.2040,0.0,1.4,66.0,2.8,'11111222,11111222,11111222' 
TCOON,ioos:station:TCOON:006:1,2010-09-06T19:00:00Z,27.8217,-97.2040,0.0,2.4,77.0,3.7,'11111222,11111222,11111222' 
TCOON,ioos:station:TCOON:006:1,2010-09-06T20:00:00Z,27.8217,-97.2040,0.0,3.7,67.0,5.6,'11111222,11111222,11111222' 
TCOON,ioos:station:TCOON:006:1,2010-09-06T21:00:00Z,27.8217,-97.2040,0.0,4.0,61.0,5.5,'11111222,11111222,11111222' 
TCOON,ioos:station:TCOON:006:1,2010-09-06T22:00:00Z,27.8217,-97.2040,0.0,4.6,61.0,6.3,'11111222,11111222,11111222' 
TCOON,ioos:station:TCOON:006:1,2010-09-06T23:00:00Z,27.8217,-97.2040,0.0,6.3,90.0,9.5,'11111222,11111222,11111222' 
TCOON,ioos:station:TCOON:006:1,2010-09-07T00:00:00Z,27.8217,-97.2040,0.0,7.1,93.0,10.2,'11111222,11111222,11111222' 
TCOON,ioos:station:TCOON:006:1,2010-09-07T01:00:00Z,27.8217,-97.2040,0.0,5.0,95.0,8.2,'11111222,11111222,11111222' 
TCOON,ioos:station:TCOON:006:1,2010-09-07T02:00:00Z,27.8217,-97.2040,0.0,5.1,95.0,7.2,'11111222,11111222,11111222' 
TCOON,ioos:station:TCOON:006:1,2010-09-07T03:00:00Z,27.8217,-97.2040,0.0,4.3,88.0,6.1,'11111222,11111222,11111222' 
TCOON,ioos:station:TCOON:006:1,2010-09-07T04:00:00Z,27.8217,-97.2040,0.0,5.5,97.0,8.0,'11111222,11111222,11111222' 
TCOON,ioos:station:TCOON:006:1,2010-09-07T05:00:00Z,27.8217,-97.2040,0.0,4.9,92.0,6.3,'11111222,11111222,11111222' 
TCOON,ioos:station:TCOON:006:1,2010-09-07T06:00:00Z,27.8217,-97.2040,0.0,5.1,92.0,8.6,'11111222,11111222,11111222' 
TCOON,ioos:station:TCOON:006:1,2010-09-07T07:00:00Z,27.8217,-97.2040,0.0,8.0,93.0,11.8,'11111222,11111222,11111222' 
TCOON,ioos:station:TCOON:006:1,2010-09-07T08:00:00Z,27.8217,-97.2040,0.0,7.9,96.0,11.0,'11111222,11111222,11111222' 
TCOON,ioos:station:TCOON:006:1,2010-09-07T09:00:00Z,27.8217,-97.2040,0.0,9.6,103.0,14.3,'11111222,11111222,11111222' 
TCOON,ioos:station:TCOON:006:1,2010-09-07T10:00:00Z,27.8217,-97.2040,0.0,8.5,104.0,13.0,'11111222,11111222,11111222' 
TCOON,ioos:station:TCOON:006:1,2010-09-07T11:00:00Z,27.8217,-97.2040,0.0,9.4,155.0,14.6,'11111222,11111222,11111222' 
TCOON,ioos:station:TCOON:006:1,2010-09-07T12:00:00Z,27.8217,-97.2040,0.0,12.5,165.0,16.7,'11111222,11111222,11111222' 
TCOON,ioos:station:TCOON:006:1,2010-09-07T13:00:00Z,27.8217,-97.2040,0.0,11.2,175.0,14.6,'11111222,11111222,11111222' 
TCOON,ioos:station:TCOON:006:1,2010-09-07T14:00:00Z,27.8217,-97.2040,0.0,11.1,179.0,12.3,'11111222,11111222,11111222' 
TCOON,ioos:station:TCOON:006:1,2010-09-07T15:00:00Z,27.8217,-97.2040,0.0,9.6,174.0,10.8,'11111222,11111222,11111222' 
TCOON,ioos:station:TCOON:006:1,2010-09-07T16:00:00Z,27.8217,-97.2040,0.0,8.1,174.0,10.4,'11111222,11111222,11111222' 
TCOON,ioos:station:TCOON:006:1,2010-09-07T17:00:00Z,27.8217,-97.2040,0.0,8.3,165.0,11.6,'11111222,11111222,11111222' 
TCOON,ioos:station:TCOON:006:1,2010-09-07T18:00:00Z,27.8217,-97.2040,0.0,5.7,159.0,9.2,'11111222,11111222,11111222' 
TCOON,ioos:station:TCOON:006:1,2010-09-07T19:00:00Z,27.8217,-97.2040,0.0,9.0,144.0,10.8,'11111222,11111222,11111222' 
TCOON,ioos:station:TCOON:006:1,2010-09-07T20:00:00Z,27.8217,-97.2040,0.0,8.7,147.0,11.1,'11111222,11111222,11111222' 
TCOON,ioos:station:TCOON:006:1,2010-09-07T21:00:00Z,27.8217,-97.2040,0.0,9.8,151.0,12.3,'11111222,11111222,11111222' 
TCOON,ioos:station:TCOON:006:1,2010-09-07T22:00:00Z,27.8217,-97.2040,0.0,7.6,156.0,10.6,'11111222,11111222,11111222' 
TCOON,ioos:station:TCOON:006:1,2010-09-07T23:00:00Z,27.8217,-97.2040,0.0,8.8,138.0,11.3,'11111222,11111222,11111222' 
TCOON,ioos:station:TCOON:006:1,2010-09-08T00:00:00Z,27.8217,-97.2040,0.0,7.1,143.0,9.7,'11111222,11111222,11111222' 
TCOON,ioos:station:TCOON:006:1,2010-09-08T01:00:00Z,27.8217,-97.2040,0.0,6.3,134.0,8.3,'11111222,11111222,11111222' 
TCOON,ioos:station:TCOON:006:1,2010-09-08T02:00:00Z,27.8217,-97.2040,0.0,6.4,142.0,8.2,'11111222,11111222,11111222' 
TCOON,ioos:station:TCOON:006:1,2010-09-08T03:00:00Z,27.8217,-97.2040,0.0,6.0,146.0,8.4,'11111222,11111222,11111222' 
TCOON,ioos:station:TCOON:006:1,2010-09-08T04:00:00Z,27.8217,-97.2040,0.0,7.0,147.0,8.6,'11111222,11111222,11111222' 
TCOON,ioos:station:TCOON:006:1,2010-09-08T05:00:00Z,27.8217,-97.2040,0.0,5.8,143.0,8.3,'11111222,11111222,11111222' 
TCOON,ioos:station:TCOON:006:1,2010-09-08T06:00:00Z,27.8217,-97.2040,0.0,6.5,141.0,9.4,'11111222,11111222,11111222' 
TCOON,ioos:station:TCOON:006:1,2010-09-08T07:00:00Z,27.8217,-97.2040,0.0,7.6,136.0,9.1,'11111222,11111222,11111222' 
TCOON,ioos:station:TCOON:006:1,2010-09-08T08:00:00Z,27.8217,-97.2040,0.0,9.2,155.0,13.2,'11111222,11111222,11111222' 
TCOON,ioos:station:TCOON:006:1,2010-09-08T09:00:00Z,27.8217,-97.2040,0.0,9.1,140.0,12.3,'11111222,11111222,11111222' 
TCOON,ioos:station:TCOON:006:1,2010-09-08T10:00:00Z,27.8217,-97.2040,0.0,6.8,133.0,11.8,'11111222,11111222,11111222' 
TCOON,ioos:station:TCOON:006:1,2010-09-08T11:00:00Z,27.8217,-97.2040,0.0,6.1,135.0,7.3,'11111222,11111222,11111222' 
TCOON,ioos:station:TCOON:006:1,2010-09-08T12:00:00Z,27.8217,-97.2040,0.0,4.5,204.0,5.1,'11111222,11111222,11111222' 
TCOON,ioos:station:TCOON:006:1,2010-09-08T13:00:00Z,27.8217,-97.2040,0.0,6.4,144.0,7.8,'11111222,11111222,11111222' 
TCOON,ioos:station:TCOON:006:1,2010-09-08T14:00:00Z,27.8217,-97.2040,0.0,6.0,151.0,7.8,'11111222,11111222,11111222' 
TCOON,ioos:station:TCOON:006:1,2010-09-08T15:00:00Z,27.8217,-97.2040,0.0,6.0,149.0,8.4,'11111222,11111222,11111222' 
TCOON,ioos:station:TCOON:006:1,2010-09-08T16:00:00Z,27.8217,-97.2040,0.0,5.8,151.0,8.0,'11111222,11111222,11111222' 
TCOON,ioos:station:TCOON:006:1,2010-09-08T17:00:00Z,27.8217,-97.2040,0.0,7.4,151.0,8.9,'11111222,11111222,11111222' 
TCOON,ioos:station:TCOON:006:1,2010-09-08T19:00:00Z,27.8217,-97.2040,0.0,6.0,147.0,8.5,'11111222,11111222,11111222' 
TCOON,ioos:station:TCOON:006:1,2010-09-08T20:00:00Z,27.8217,-97.2040,0.0,5.2,131.0,8.1,'11111222,11111222,11111222' 
TCOON,ioos:station:TCOON:006:1,2010-09-08T21:00:00Z,27.8217,-97.2040,0.0,6.1,139.0,8.2,'11111222,11111222,11111222' 
TCOON,ioos:station:TCOON:006:1,2010-09-08T22:00:00Z,27.8217,-97.2040,0.0,5.1,143.0,6.5,'11111222,11111222,11111222' 
TCOON,ioos:station:TCOON:006:1,2010-09-08T23:00:00Z,27.8217,-97.2040,0.0,5.0,132.0,6.4,'11111222,11111222,11111222' 
TCOON,ioos:station:TCOON:006:1,2010-09-09T00:00:00Z,27.8217,-97.2040,0.0,4.1,124.0,6.8,'11111222,11111222,11111222' 
TCOON,ioos:station:TCOON:006:1,2010-09-09T01:00:00Z,27.8217,-97.2040,0.0,4.0,126.0,5.8,'11111222,11111222,11111222' 
TCOON,ioos:station:TCOON:006:1,2010-09-09T02:00:00Z,27.8217,-97.2040,0.0,5.1,132.0,7.6,'11111222,11111222,11111222' 
TCOON,ioos:station:TCOON:006:1,2010-09-09T03:00:00Z,27.8217,-97.2040,0.0,5.8,136.0,8.1,'11111222,11111222,11111222' 
TCOON,ioos:station:TCOON:006:1,2010-09-09T04:00:00Z,27.8217,-97.2040,0.0,5.1,144.0,7.4,'11111222,11111222,11111222' 
TCOON,ioos:station:TCOON:006:1,2010-09-09T05:00:00Z,27.8217,-97.2040,0.0,5.7,141.0,6.9,'11111222,11111222,11111222' 
TCOON,ioos:station:TCOON:006:1,2010-09-09T06:00:00Z,27.8217,-97.2040,0.0,5.0,152.0,6.9,'11111222,11111222,11111222' 
TCOON,ioos:station:TCOON:006:1,2010-09-09T07:00:00Z,27.8217,-97.2040,0.0,5.4,154.0,6.8,'11111222,11111222,11111222' 
TCOON,ioos:station:TCOON:006:1,2010-09-09T08:00:00Z,27.8217,-97.2040,0.0,4.9,153.0,7.1,'11111222,11111222,11111222' 
TCOON,ioos:station:TCOON:006:1,2010-09-09T09:00:00Z,27.8217,-97.2040,0.0,5.1,164.0,6.0,'11111222,11111222,11111222' 
TCOON,ioos:station:TCOON:006:1,2010-09-09T10:00:00Z,27.8217,-97.2040,0.0,5.4,167.0,6.8,'11111222,11111222,11111222' 
TCOON,ioos:station:TCOON:006:1,2010-09-09T11:00:00Z,27.8217,-97.2040,0.0,4.3,172.0,5.9,'11111222,11111222,11111222' 